Weather History for Portsmouth, NH

Change the Weather History Date:

Monday, November 10, 2014

  Actual Average Record
Temperature  
Mean Temperature 43 °F -  
Max Temperature 56 °F 47 °F 68 °F (1999)
Min Temperature 30 °F 32 °F 15 °F (1995)
Degree Days  
Heating Degree Days 22    
Moisture  
Dew Point 34 °F    
Average Humidity 75    
Maximum Humidity 95    
Minimum Humidity 39    
Precipitation  
Precipitation 0.00 in - - ()
Sea Level Pressure  
Sea Level Pressure 30.14 in    
Wind  
Wind Speed 3 mph (West)    
Max Wind Speed 8 mph    
Max Gust Speed -    
Visibility 10 miles    
Events Fog    
Averages and records for this station are not official NWS values.
T = Trace of Precipitation, MM = Missing Value Source: NWS Daily Summary

Daily Weather History Graph

Daily Weather History Graph

Search for Another Location

Airport:

Trip Planner

Search our weather history database for the weather conditions in past years. The results will help you decide how hot, cold, wet, or windy it might be!

Date:

Astronomy

Nov. 10, 2014 Rise Set
Actual Time 6:29 AM EST 4:24 PM EST
Civil Twilight 5:59 AM EST 4:54 PM EST
Nautical Twilight 5:25 AM EST 5:28 PM EST
Astronomical Twilight 4:51 AM EST 6:02 PM EST
Moon 7:48 PM EST (11/10) 9:50 AM EST (11/10)
Length of Visible Light 10h 55m
Length of Day
9h 55m
Waning Gibbous, 85% of the Moon is Illuminated
Nov 10
Waning Gibbous
Nov 14
Last Quarter
Nov 22
New
Nov 29
First Quarter
Dec 6
Full

Hourly Weather History & Observations

Time (EST) Temp. Windchill Dew Point Humidity Pressure Visibility Wind Dir Wind Speed Gust Speed Precip Events Conditions
12:58 AM 33.4 °F - 32.2 °F 95% 30.02 in 10.0 mi West 1.2 mph - N/A Fog Patches of Fog
1:58 AM 32.9 °F - 31.5 °F 94% 30.04 in 10.0 mi NW 2.3 mph - N/A   Partly Cloudy
2:58 AM 31.8 °F - 30.6 °F 95% 30.04 in 10.0 mi Calm Calm - N/A   Mostly Cloudy
3:58 AM 32.0 °F - 30.6 °F 94% 30.06 in 10.0 mi WNW 2.3 mph - N/A   Overcast
4:58 AM 32.0 °F - 30.6 °F 94% 30.07 in 10.0 mi WSW 2.3 mph - N/A   Scattered Clouds
5:58 AM 30.7 °F 24.9 °F 29.3 °F 94% 30.09 in 10.0 mi NW 5.8 mph - N/A   Scattered Clouds
6:58 AM 31.5 °F - 30.0 °F 94% 30.12 in 10.0 mi NW 1.2 mph - N/A   Mostly Cloudy
7:58 AM 36.7 °F 32.9 °F 34.2 °F 91% 30.14 in 10.0 mi West 4.6 mph - N/A   Mostly Cloudy
8:58 AM 42.8 °F 40.1 °F 33.1 °F 69% 30.16 in 10.0 mi WSW 4.6 mph - N/A   Mostly Cloudy
9:58 AM 50.9 °F - 32.9 °F 50% 30.14 in 10.0 mi WSW 8.1 mph - N/A   Mostly Cloudy
10:58 AM 54.7 °F - 32.7 °F 43% 30.14 in 10.0 mi West 6.9 mph - N/A   Scattered Clouds
11:58 AM 54.9 °F - 31.3 °F 41% 30.14 in 10.0 mi SW 8.1 mph - N/A   Mostly Cloudy
12:58 PM 56.5 °F - 31.8 °F 39% 30.14 in 10.0 mi West 5.8 mph - N/A   Mostly Cloudy
1:58 PM 55.2 °F - 32.2 °F 42% 30.14 in 10.0 mi WSW 4.6 mph - N/A   Mostly Cloudy
2:58 PM 56.3 °F - 31.8 °F 39% 30.15 in 10.0 mi West 4.6 mph - N/A   Mostly Cloudy
3:58 PM 53.1 °F - 32.7 °F 46% 30.17 in 10.0 mi Variable 1.2 mph - N/A   Overcast
4:58 PM 47.1 °F - 37.8 °F 70% 30.19 in 10.0 mi SE 3.5 mph - N/A   Mostly Cloudy
5:58 PM 45.1 °F - 38.7 °F 78% 30.19 in 10.0 mi ESE 2.3 mph - N/A   Mostly Cloudy
6:58 PM 45.3 °F 43.0 °F 40.3 °F 83% 30.19 in 10.0 mi SE 4.6 mph - N/A   Mostly Cloudy
7:58 PM 43.3 °F - 39.2 °F 85% 30.21 in 10.0 mi Calm Calm - N/A   Partly Cloudy
8:58 PM 41.9 °F - 39.2 °F 90% 30.20 in 10.0 mi NW 1.2 mph - N/A   Scattered Clouds
9:58 PM 38.8 °F - 37.2 °F 94% 30.19 in 10.0 mi WNW 1.2 mph - N/A   Scattered Clouds
10:58 PM 36.5 °F - 34.9 °F 94% 30.18 in 10.0 mi NNW 1.2 mph - N/A   Partly Cloudy
11:58 PM 34.5 °F - 33.1 °F 94% 30.20 in 10.0 mi WSW 2.3 mph - N/A   Clear